Location: ?astrovice
(49.6513°N, 14.9287°E)
Time: 01:08:34
(UTC+00:00)

RESURS DK-1 - Pass Details

Date: 09 April 2020
Orbit: 557 x 561 km, 69.9° (Epoch: 03 June)

Event Time Altitude Azimuth Distance (km) Brightness Sun altitude
Rises 19:06:24 0° 335° (NNW) 2,762 6.9 -13.1°
Reaches altitude 10° 19:08:53 10° 348° (NNW) 1,862 5.6 -13.4°
Maximum altitude 19:12:28 27° 47° (NE) 1,097 3.7 -13.9°
Enters shadow 19:14:21 19° 88° (E) 1,352 3.8 -14.2°
